EW4496 Weather Reports


Display with metric or nautical units.
time (UTC)temp
F
wind
direction
speed
MPH
gust
MPH
rain 1hr
in
rain 24hr
in
rain mn
in
humidity
%
barometer
mb
20260502183111 63 283 1.0 7.0 0.00 0.00 0.00 71 1012.2
20260502181610 64 283 1.0 7.0 0.00 0.00 0.00 70 1012.2
20260502180110 64 337 0.0 5.0 0.00 0.00 0.00 72 1012.1
20260502163049 61 274 0.0 0.0 0.00 0.00 0.00 78 1012.0
20260502161514 60 263 0.0 0.0 0.00 0.00 0.00 79 1011.9
20260502151528 56 276 0.0 0.0 0.00 0.00 0.00 87 1011.6
20260502123109 52 221 0.0 0.0 0.00 0.00 0.00 91 1010.4
20260502121609 52 221 0.0 0.0 0.00 0.00 0.00 91 1010.4
20260502120111 52 219 0.0 0.0 0.00 0.00 0.00 90 1010.5
20260502114612 52 219 0.0 0.0 0.00 0.00 0.00 89 1010.5
20260502113109 53 221 0.0 0.0 0.00 0.00 0.00 88 1010.7
20260502111609 53 270 0.0 0.0 0.00 0.00 0.00 87 1010.6
20260502110109 53 270 0.0 0.0 0.00 0.00 0.00 87 1010.7
20260502104608 54 269 0.0 0.0 0.00 0.00 0.00 85 1010.7
20260502103019 54 278 0.0 0.0 0.00 0.00 0.00 85 1010.6
20260502101539 54 229 0.0 0.0 0.00 0.00 0.00 86 1010.6
20260502091519 55 263 0.0 0.0 0.00 0.00 0.00 85 1010.8
20260502070058 58 237 0.0 4.0 0.00 0.00 0.00 82 1011.2
20260502064551 59 210 0.0 2.0 0.00 0.00 0.00 82 1011.1
20260502063055 59 174 0.0 3.0 0.00 0.00 0.00 82 1011.0
20260502061609 59 217 0.0 1.0 0.00 0.00 0.00 82 1011.0
20260502060104 60 219 0.0 0.0 0.00 0.00 0.00 81 1011.0
20260502054602 61 221 0.0 0.0 0.00 0.00 0.00 81 1011.1
20260502053102 61 212 0.0 0.0 0.00 0.00 0.00 82 1011.0
20260502051502 62 213 0.0 0.0 0.00 0.00 0.00 80 1010.9
20260502050007 63 281 0.0 1.0 0.00 0.00 0.00 79 1010.9
20260502044503 64 266 0.0 0.0 0.00 0.00 0.00 78 1010.7
20260502043002 65 280 0.0 1.0 0.00 0.00 0.00 76 1010.6
20260502041517 65 298 0.0 0.0 0.00 0.00 0.00 76 1010.5
20260502040017 66 269 0.0 1.0 0.00 0.00 0.00 74 1010.3
20260502034524 67 285 0.0 0.0 0.00 0.00 0.00 72 1010.0
20260502033017 68 266 0.0 1.0 0.00 0.00 0.00 68 1009.8
20260502031534 70 295 0.0 1.0 0.00 0.00 0.00 63 1009.6
20260502030033 71 283 0.0 2.0 0.00 0.00 0.00 58 1009.6
20260502024536 72 319 0.0 0.0 0.00 0.00 0.00 60 1009.4
20260502023032 74 284 0.0 0.0 0.00 0.00 0.00 60 1009.3
20260502021548 77 274 0.0 1.0 0.00 0.00 0.00 59 1009.3
20260502014549 81 293 0.0 1.0 0.00 0.00 0.00 52 1009.3
20260502013059 82 19 0.0 1.0 0.00 0.00 0.00 49 1009.4
20260502011546 80 213 0.0 0.0 0.00 0.00 0.00 51 1009.4
20260502004625 81 307 0.0 4.0 0.00 0.00 0.00 54 1009.7
20260502003102 81 229 0.0 4.0 0.00 0.00 0.00 52 1009.7
20260502001611 81 217 0.0 4.0 0.00 0.00 0.00 50 1009.7
20260502000002 82 191 0.0 8.0 0.00 0.00 0.00 49 1009.8
20260501234501 83 234 0.0 0.0 0.00 0.00 0.00 47 1009.9
20260501233004 82 197 0.0 1.0 0.00 0.00 0.00 47 1010.0
20260501231501 82 291 0.0 3.0 0.00 0.00 0.00 46 1010.1
20260501230117 83 222 0.0 4.0 0.00 0.00 0.00 45 1010.3
20260501224616 83 310 0.0 3.0 0.00 0.00 0.00 45 1010.6
20260501223118 83 284 0.0 1.0 0.00 0.00 0.00 45 1010.9
20260501221618 82 293 0.0 1.0 0.00 0.00 0.00 46 1011.1
20260501220139 82 219 0.0 3.0 0.00 0.00 0.00 46 1011.3
20260501214617 82 316 0.0 1.0 0.00 0.00 0.00 47 1011.4
20260501213117 82 286 0.0 1.0 0.00 0.00 0.00 48 1011.6
20260501211615 81 289 0.0 2.0 0.00 0.00 0.00 49 1011.6
20260501210123 81 285 0.0 5.0 0.00 0.00 0.00 48 1011.8
20260501204615 80 274 0.0 5.0 0.00 0.00 0.00 50 1012.0
20260501203115 79 339 0.0 6.0 0.00 0.00 0.00 53 1012.1
20260501201616 79 278 0.0 5.0 0.00 0.00 0.00 52 1012.3
20260501200118 78 334 0.0 7.0 0.00 0.00 0.00 54 1012.3
20260501194615 77 336 0.0 6.0 0.00 0.00 0.00 54 1012.5
20260501193115 76 231 0.0 4.0 0.00 0.00 0.00 55 1012.6
20260501191616 75 346 0.0 3.0 0.00 0.00 0.00 56 1012.9
20260501190014 74 264 0.0 4.0 0.00 0.00 0.00 60 1013.0
20260501184525 74 331 0.0 5.0 0.00 0.00 0.00 58 1013.2